www.pogodaiklimat.ru

Погода и климат >> Архив погоды >> Россия >> Якутия >> Томпо


ПОГОДА в Томпо

  • Прогноз погоды в Томпо
  • Монитор погоды в Томпо
  • Климат города

АРХИВ ПОГОДЫ в Томпо

Время (UTC), дата Ветер
(напр.,м/с)
 
Видим.   Явления Облачность Т
(С)
Тd
(С)
f
(%)
Тe
(С)
Тes
(С)
Комфортность P
(гПа)
Po
(гПа)
Тmin
(С)
Tmax
(С)
R
(мм)
R24
(мм)
S
(см)
09 13.09 СЗ 2 50 км 3/0
[Ci fib]
+4.4 -3.4 57 +2 +2 1023.0 973.8 +5.3
12 13.09 штиль 0 50 км ясно -2.1 -3.9 87 -3 -3 1024.8 974.3
15 13.09 штиль 0 50 км ясно -3.6 -4.7 92 -5 -5 1024.8 974.2
18 13.09 штиль 0 50 км ясно -5.4 -6.4 93 -6 -6 1025.0 974.0
21 13.09 штиль 0 50 км ясно -6.6 -8.2 88 -7 -7 1025.1 973.9 -6.8
00 14.09 С 1 50 км ясно -2.3 -3.8 89 -5 -2 1023.7 973.2 -6.9
03 14.09 СВ 1 50 км ясно +6.4 -3.1 51 +6 +12 1019.4 970.8
06 14.09 С 2 50 км ясно +9.3 -3.5 40 +8 +11 1016.9 968.9
09 14.09 штиль 0 50 км ясно +9.2 -4.4 38 +9 +9 1015.5 967.5 +10.2
12 14.09 С 1 50 км ясно -0.1 -3.7 77 -2 -2 1017.2 967.4
15 14.09 СЗ 1 50 км ясно -2.5 -3.8 91 -5 -5 1017.2 967.1
18 14.09 штиль 0 50 км ясно -5.4 -6.4 93 -6 -6 1017.3 966.7
21 14.09 штиль 0 50 км 1/0
[Ci fib]
-6.4 -6.9 96 -7 -7 1017.3 966.5 -7.0
00 15.09 штиль 0 50 км 1/0
[Ci fib]
-2.6 -3.6 93 -4 -1 1015.6 965.6
03 15.09 СВ 2 50 км ясно +6.9 -2.3 52 +5 +10 1011.8 963.5
06 15.09 С 1 50 км 3/0
[Ci fib]
+11.0 -2.9 38 +11 +14 1009.0 961.5
09 15.09 штиль 0 50 км 8/0
[Ci fib]
+10.6 -1.4 43 +10 +10 1008.1 960.7 +11.7
12 15.09 штиль 0 50 км 3/0
[Ci fib]
+2.5 -2.1 72 +2 +2 1009.4 960.6
15 15.09 СЗ 1 50 км 1/0
[Ci fib]
-0.5 -2.3 88 -3 -3 1009.9 960.5
18 15.09 С 1 50 км ясно -2.7 -3.4 95 -5 -5 1010.1 960.4
21 15.09 СЗ 1 50 км 3/0
[Ci fib]
-3.8 -4.3 96 -6 -6 1010.4 960.5 -4.0
00 16.09 С 1 50 км 3/0
[Ci fib]
-1.5 -2.6 92 -4 -1 1009.5 960.0 -4.1
03 16.09 СВ 2 50 км 3/0
[Ci fib]
+10.5 -3.8 36 +10 +14 1005.2 957.9
06 16.09 СВ 2 50 км 3/0
[Ci fib]
+12.8 -3.7 31 +12 +15 1003.8 956.9
09 16.09 С 2 50 км 3/0
[Ci fib]
+10.9 -2.3 40 +10 +10 1004.4 957.1 +13.4
12 16.09 штиль 0 50 км 3/0
[Ci fib]
+3.0 -2.8 66 +2 +2 1006.5 958.0
15 16.09 штиль 0 50 км ясно -0.1 -3.1 80 -1 -1 1007.7 958.4
18 16.09 С 1 50 км 3/0
[Ci fib]
-2.6 -4.2 89 -5 -5 1008.1 958.5
21 16.09 С 1 50 км ясно -4.3 -5.2 93 -7 -7 1008.8 958.8 -4.4
00 17.09 С 1 50 км ясно +1.2 -3.0 74 -0 +2 1007.5 958.6 -4.7
03 17.09 С 3 50 км ясно +9.5 -3.5 40 +8 +12 1004.9 957.4
06 17.09 СВ 3 50 км 3/0
[Cc]
+11.5 -3.6 35 +10 +12 1003.7 956.7
09 17.09 С 1 50 км 3/0
[Ac trans]
+9.5 -3.5 40 +10 +10 1005.3 957.8 +12.1
12 17.09 штиль 0 50 км 3/0
[Ac trans]
+3.4 -2.3 66 +3 +3 1007.3 958.8
15 17.09 штиль 0 50 км 4/3 1000 м
[Sc Ac trans]
+0.4 -2.6 80 -1 -1 1008.3 959.1
18 17.09 штиль 0 50 км 8/5 1000 м
[Sc Ac trans]
+2.6 -1.9 72 +2 +2 1008.4 959.6
21 17.09 штиль 0 50 км 10/10 1000 м
[Sc]
+2.2 -1.5 76 +1 +1 1008.8 960.0 +0.2
00 18.09 С 2 50 км 10/10 1000 м
[Sc]
+5.0 -0.9 66 +3 +3 1009.0 960.7
03 18.09 С 2 50 км 10/10 1000 м
[Sc]
+6.6 +0.8 66 +5 +5 1009.0 960.9
06 18.09 СВ 2 50 км 8/6 1000 м
[Sc Ci fib]
+9.3 -0.2 51 +8 +9 1008.4 960.8
09 18.09 С 1 50 км 8/1 1000 м
[Cu med, cong Ac trans Ci fib]
+7.7 -0.9 54 +7 +7 1009.3 961.3 +10.0
12 18.09 штиль 0 50 км 4/3 1000 м
[Sc Ci fib]
0.0 -1.8 88 -1 -1 1011.2 961.9
15 18.09 штиль 0 50 км 3/0
[Ci fib]
-2.0 -2.6 96 -3 -3 1012.1 962.3
18 18.09 С 1 50 км 3/3 1000 м
[Sc]
-2.5 -3.1 96 -5 -5 1012.3 962.5
21 18.09 С 1 50 км 8/5 1000 м
[Sc Ci fib]
-2.1 -2.7 96 -4 -4 1012.6 962.8 -2.7
00 19.09 С 1 50 км 8/4 1000 м
[Sc Ac trans Cc]
+0.3 -1.7 86 -2 -1 1011.9 962.6
03 19.09 С 3 50 км 3/3 1000 м
[Sc]
+7.8 -1.4 52 +6 +8 1009.6 961.6
06 19.09 СВ 3 50 км 8/3 1000 м
[Sc Ac trans Cc]
+9.0 -1.0 50 +7 +8 1009.1 961.4
09 19.09 СЗ 2 50 км 4/0
[Ac trans Cc]
+6.6 -0.7 60 +5 +5 1010.4 962.2 +10.1
12 19.09 штиль 0 50 км 4/3 1000 м
[Sc Ac trans]
-0.3 -3.0 82 -1 -1 1012.8 963.2
15 19.09 штиль 0 50 км 8/3 1000 м
[Sc Ac trans Ci fib]
+1.5 -2.0 78 +1 +1 1012.6 963.4
18 19.09 штиль 0 50 км 9/8 1000 м
[Sc Ac trans]
+1.6 -2.5 74 +1 +1 1013.1 963.9
21 19.09 С 1 50 км 10/10 1000 м
[Sc]
+2.6 -2.3 70 +1 +1 1013.1 964.1 -0.5
00 20.09 СЗ 1 50 км 10/10 1000 м
[Sc]
+3.6 -2.7 63 +3 +3 1013.2 964.4
03 20.09 СЗ 1 50 км 10/10 1000 м
[Sc]
+4.7 -2.3 60 +4 +4 1013.2 964.5

 

Местоположение метеостанции Томпо (Якутия, Россия): широта 63.95 долгота 135.80 высота над уровнем моря 402 м.

В архиве по умолчанию представлена погода в Томпо за последнюю неделю. Архивные данные за месяц целиком и за предыдущие месяцы, начиная с января 2011 года, Вы можете получить, выбрав интересующий диапазон дат из раскрывающегося списка и нажав кнопку "Ввод!".


*Определитесь, кто Вы:
робот инопланетянин человек

Внимание! Время в таблицах - всемирное. Для получения местного времени необходимо прибавить поправку, которая в Томпо равна 9 ч.

Смотрите также архив погоды в соседних городах и на ближайших метеорологических станциях:

Погода в Теплом Ключе (Якутия, Россия) (139 км)
Погода в Крест-Хальджае (Якутия, Россия) (144 км)
Погода в Иэме (Якутия, Россия) (150 км)
Погода в Верхоянском Перевозе (Якутия, Россия) (200 км)
Погода в Восточной (Якутия, Россия) (204 км)
Погода в Ытык-Кюёле (Якутия, Россия) (210 км)
Погода в Охотском Перевозе (Якутия, Россия) (232 км)
Погода в Чурапче (Якутия, Россия) (268 км)
Погода в Сеген-Кюели (Якутия, Россия) (268 км)
Погода в Юртах (Якутия, Россия) (293 км)

Пояснения к столбцам:

Ветер - указаны скорость ветра в м/с - средняя за 10 мин, порывы в срок и между сроками (в фигурных скобках) и направление, откуда дует ветер: С - северный, СВ - северо-восточный, В - восточный, ЮВ - юго-восточный, Ю - южный, ЮЗ - юго-западный, З - западный, СЗ - северо-западный.
Видимость - горизонтальная дальность видимости в метрах или километрах. При видимости от 1 до 10 км при отсутствии осадков обычно наблюдается дымка, при ухудшении видимости до 1 км и менее - туман. В сухую погоду видимость может ухудшаться дымом, пылью или мглою.
Явления - указаны атмосферные явления, наблюдавшиеся в срок или в последний час перед сроком; фигурными скобками обозначены явления, наблюдавшиеся между сроками (за 1-3 часа до срока); квадратными скобками обозначены град или гололедные отложения с указанием их диаметра в мм.
Облачность - указаны через наклонную черту общая и нижняя облачность в баллах и высота нижней границы облаков в метрах; квадратными скобками обозначены формы облаков: Ci - перистые, Cs - перисто-слоистые, Cc - перисто-кучевые, Ac - высококучевые, As - высокослоистые, Sc - слоисто-кучевые, Ns - слоисто-дождевые, Cu - кучевые, Cb - кучево-дождевые. Подробнее классификацию облаков см. в Атласе облаков (PDF).
T - Температура воздуха - температура, измеренная на высоте 2 м над землей.
Td - Температура точки росы - температура, при понижении до которой содержащийся в воздухе водяной пар достигнет насыщения.
f - Относительная влажность воздуха - влажноcть воздуха, измеренная на высоте 2 м над землей.
Te - Эффективная температура - температура, которую ощущает одетый по сезону человек в тени. Характеристика душности погоды. При расчете учитывается влияние влажности воздуха и скорости ветра на теплоощущения человека.
Tes - Эффективная температура на солнце - температура, которую ощущает человек, с поправкой на солнечный нагрев. Характеристика знойности погоды. Зависит от высоты солнца над горизонтом, облачности и скорости ветра. Ночью, в пасмурную погоду, а также при ветре 12 м/с и более поправка равна нулю.
P - Атмосферное давление - приведенное к уровню моря атмосферное давление.
Po - Атмосферное давление - измеренное на уровне метеостанции атмосферное давление.
Tmin - Минимальная температура - минимум температуры воздуха на высоте 2 м над землей.
Tmax - Максимальная температура - максимум температуры воздуха на высоте 2 м над землей.
R - Количество осадков - Количество выпавших осадков за период времени, мм. При наведении курсора мыши на число - период времени, за который выпало указанное количество осадков.
R24 - Количество осадков - Количество выпавших осадков за 24 часа, мм.
S - Снежный покров - Высота снежного покрова, см. При наведении курсора мыши на число - состояние снежного покрова и степень покрытия местности в баллах.